Location: Haulchin
(50.3172°N, 3.4360°E)
Time: 05:16:13
(UTC+00:00)

Cosmos 1954 Rocket - Pass Details

Date: 23 May 2024
Orbit: 750 x 778 km, 74.0° (Epoch: 19 June)

Event Time Altitude Azimuth Distance (km) Brightness Sun altitude
Exits shadow 00:48:45 31° 189° (S) 1,342 4.7 -17.6°
Maximum altitude 00:51:20 74° 111° (ESE) 813 4.1 -17.5°
Drops below altitude 10° 00:56:39 10° 27° (NNE) 2,340 7.8 -17.2°
Sets 00:59:02 0° 26° (NNE) 3,270 9.0 -17.1°
